Regional Weather Roundup
Issued by NWS

Home | Current Version | Previous Version | Graphics & Text | Print | Product List | Glossary On
Versions: 1 2 3 4 5 6 7 8 9 10 11 12 13 14 15 16 17 18 19 20 21 22 23 24 25 26 27 28 29 30 31 32 33 34 35 36 37 38 39 40 41 42 43 44 45 46 47 48 49 50
000
ASUS43 KMPX 311310
RWRMN
WEATHER ROUNDUP FOR MINNESOTA
NATIONAL WEATHER SERVICE TWIN CITIES/CHANHASSEN MN
700 AM CST SAT JAN 31 2015


NOTE: "FAIR" INDICATES FEW OR NO CLOUDS BELOW 12,000 FEET WITH NO
SIGNIFICANT WEATHER AND/OR OBSTRUCTIONS TO VISIBILITY. N/A MEANS
CURRENT SKY AND/OR WEATHER CONDITIONS ARE NOT AVAILABLE.

MNZ060>063-068>070-311400-
   Twin Cities Metro

CITY           SKY/WX    TMP DP  RH WIND       PRES   REMARKS
TWIN CITIES    MOCLDY    20  17  88 NW5       30.15R WCI  13
ST PAUL        CLOUDY    21  19  92 CALM      30.17R
CRYSTAL        CLOUDY    23  20  88 CALM      30.15R
BLAINE         CLOUDY    27  27 100 CALM      30.15R
LAKEVILLE      PTCLDY    21  19  93 CALM      30.14S
EDEN PRAIRIE   PTCLDY    20  17  88 N5        30.15R WCI  13
SOUTH ST PAUL  MOCLDY    22  19  89 CALM      30.15S
LAKE ELMO      CLOUDY    27  23  86 CALM      30.16R
$$
MNZ001>005-007-008-013>017-022>024-027-028-311400-
   Northwest Minnesota

CITY           SKY/WX    TMP DP  RH WIND       PRES   REMARKS
BEMIDJI        PTCLDY    11   6  77 N12G17    30.23R WCI  -3
HALLOCK        MOCLDY     1  -6  71 N15       30.40R WCI -18
ROSEAU         MOCLDY     1  -6  71 N13       30.34R WCI -16
WARROAD        MOCLDY     0  -6  78 NW9       30.33R WCI -16
THIEF RVR FALL MOCLDY     3  -2  78 N12       30.33R WCI -13
CROOKSTON      PTCLDY     7   0  72 N14G20    30.37R WCI -10
FOSSTON        CLEAR      7   1  78 N16       30.29R WCI -11
DETROIT LAKES  CLOUDY    18  14  86 N6        30.22F WCI   9
MOORHEAD       MIX PCPN  14  10  85 N23       30.30R WCI  -5
PARK RAPIDS    CLOUDY    19  16  88 N10       30.19R WCI   7
MAHNOMEN       CLOUDY    11   7  82 N14       30.26R WCI  -5
$$
MNZ006-009>011-018-025>026-311400-
   North Central Minnesota

CITY           SKY/WX    TMP DP  RH WIND       PRES   REMARKS
BAUDETTE       PTCLDY     0  -6  76 NW14      30.27R WCI -19
FLAG ISLAND    PTCLDY    -2  -8  78 N15       30.32R WCI -22
INTL FALLS     PTCLDY     6   0  76 NW9       30.23R WCI  -8
WASKISH        MOCLDY     3   0  85 N7        30.27R WCI  -9
BIG FORK       LGT SNOW  12   9  85 NW5       30.21R WCI   4
LONGVILLE      CLOUDY    18  14  86 N3        30.20S
GRAND RAPIDS   CLOUDY    18  10  73 NW14      30.17S WCI   4
CRANE LAKE     FLURRIES  10   5  79 N8        30.23R WCI  -1
ORR            LGT SNOW  10   7  85 NW5       30.17R WCI   2
COOK           FLURRIES  12   9  85 NW8       30.19R WCI   1
WALKER         CLOUDY    16  12  82 N6        30.21R WCI   8
$$
MNZ012-019>021-037-311400-
   Northeast Minnesota

CITY           SKY/WX    TMP DP  RH WIND       PRES   REMARKS
DULUTH         CLOUDY    20  13  74 NW9       30.14R WCI   9
ELY            LGT SNOW  12   9  85 NW9G17    30.15R WCI   0
HIBBING        CLOUDY    18  10  71 N13       30.17R WCI   5
EVELETH        FLURRIES  18  12  79 N8        30.17R WCI   7
DULUTH HARBOR  CLOUDY    25  18  74 N12       30.20R WCI  14
TWO HARBORS    CLOUDY    21  16  79 NW5       30.14R WCI  15
SILVER BAY     CLOUDY    19  12  73 W5        30.13R WCI  13
GRAND MARAIS     N/A     16   8  71 CALM      30.16R
G MARAIS ARPRT LGT SNOW   9   3  78 NW10G17   30.06R WCI  -6
$$
MNZ029>031-032-039>041-046>048-054>057-064-311400-
   West Central Minnesota

CITY           SKY/WX    TMP DP  RH WIND       PRES   REMARKS
FERGUS FALLS   CLOUDY    18  14  86 N10G17    30.26R WCI   6
WHEATON        CLOUDY    16  12  86 N15G25    30.25R WCI   1
MORRIS         CLOUDY    21  19  93 N16       30.19R FOG     WCI   7
ALEXANDRIA     CLOUDY    21  18  88 N15       30.18R WCI   8
ELBOW LAKE     CLOUDY    19  17  93 N17       30.20S WCI   3
WADENA         CLOUDY    19  18  93 N9        30.18F WCI   9
GLENWOOD       CLOUDY    21  21 100 N13       30.17R WCI   9
APPLETON       CLOUDY    23  19  86 N16       30.20R WCI  10
BENSON         CLOUDY    23  19  86 NE14      30.18R WCI  11
ORTONVILLE     CLOUDY    19  16  86 N23       30.21R WCI   2
MADISON        CLOUDY    25  23  93 N16       30.20R WCI  12
WILLMAR        CLOUDY    25  21  86 N12       30.18R FOG     WCI  14
$$
MNZ033>034-036-042>043-049>051-058-059-311400-
   Central Minnesota

CITY           SKY/WX    TMP DP  RH WIND       PRES   REMARKS
ST CLOUD       CLOUDY    25  21  85 N12       30.16R WCI  14
SAUK CENTRE    CLOUDY    23  21  93 N10       30.17S WCI  12
PAYNESVILLE    CLOUDY    21  21  98 NW12      30.17R WCI   9
AITKIN         CLOUDY    25  18  74 NW7       30.17S WCI  17
PINE RIVER     CLOUDY    19  16  86 N10       30.22S WCI   8
BRAINERD       CLOUDY    21  17  84 N12       30.19R WCI   9
STAPLES        CLOUDY    21  18  86 N9        30.19R WCI  11
LONG PRAIRIE   CLOUDY    23  21  93 N12G17    30.17S WCI  12
LITTLE FALLS   CLOUDY    27  21  80 N8        30.18S WCI  18
LITCHFIELD     CLOUDY    25  25 100 N7        30.15S WCI  17
BUFFALO        CLOUDY    25  23  91 N7        30.16S WCI  17
MAPLE LAKE     CLOUDY    26  25  96 N7        30.16S WCI  18
$$
MNZ037-044-045-052-053-311400-
   East Central Minnesota

CITY           SKY/WX    TMP DP  RH WIND       PRES   REMARKS
PRINCETON      CLOUDY    28  23  80 N9        30.16R WCI  20
MORA           CLOUDY    27  21  80 N8        30.18R WCI  18
CAMBRIDGE      CLOUDY    28  19  69 N6        30.14S WCI  22
RUSH CITY      CLOUDY    26  20  81 N8        30.16S WCI  17
MOOSE LAKE     CLOUDY    25  18  74 N8        30.16R WCI  16
HINCKLEY       CLOUDY    27  21  80 N8        30.17R WCI  18
CLOQUET        CLOUDY    21  16  79 NW9G17    30.15R WCI  11
MCGREGOR       CLOUDY    23  19  86 NW10      30.18R WCI  12
$$
MNZ071>073-080-081-089-090-097-098-311400-
   Southwest Minnesota

CITY           SKY/WX    TMP DP  RH WIND       PRES   REMARKS
MONTEVIDEO     CLOUDY    25  25 100 NE9       30.19R FOG     WCI  15
GRANITE FALLS  CLOUDY    24  23  94 N8        30.20R FOG     WCI  15
CANBY          CLOUDY    23  21  94 N15       30.19S FOG     WCI  10
MARSHALL       CLOUDY    25  19  80 N15       30.17S WCI  12
REDWOOD FALLS  CLOUDY    24  21  88 N9        30.16R WCI  14
OLIVIA         CLOUDY    21  21 100 CALM      30.16S
PIPESTONE      CLOUDY    25  23  93 E13       30.11S FOG     WCI  13
WINDOM         CLOUDY    23  21  93 N7        30.12F WCI  15
WORTHINGTON    CLOUDY    25  21  86 N10       30.13S WCI  15
JACKSON        MOCLDY    27  23  86 N3        30.12F
TRACY          CLOUDY    25  24  96 N15       30.14S FOG     WCI  13
SLAYTON        CLOUDY    24  23  97 N13       30.12F FOG     WCI  12
$$
MNZ065>067-074>077-082>085-091>093-311400-
   South Central Minnesota

CITY           SKY/WX    TMP DP  RH WIND       PRES   REMARKS
MANKATO        PTCLDY    21  18  86 N8        30.13S WCI  12
NEW ULM        CLEAR     21  21 100 N7        30.14S WCI  13
ST JAMES       CLEAR     25  21  86 W6        30.15S WCI  18
FAIRMONT       PTCLDY    25  21  86 NW7       30.12F WCI  17
GLENCOE        PTCLDY    22  22  98 N6        30.15R FOG     WCI  15
FARIBAULT      CLOUDY    21  19  93 CALM      30.14R
OWATONNA       PTCLDY    19  18  93 CALM      30.12S FOG
WASECA         PTCLDY    19  18  93 CALM      30.14S FOG
ALBERT LEA     PTCLDY    25  23  93 CALM      30.12S
$$
MNZ078>079-086>088-094>096-311400-
   Southeast Minnesota

CITY           SKY/WX    TMP DP  RH WIND       PRES   REMARKS
ROCHESTER      MOCLDY    22  18  85 W7        30.12S WCI  13
RED WING       CLOUDY    25  21  86 CALM      30.14F
STANTON        CLOUDY    26  22  87 CALM      30.13S
DODGE CENTER   MOCLDY    21  19  93 CALM      30.12R
WINONA         CLOUDY    25  19  80 CALM      30.17S
AUSTIN         PTCLDY    18  16  93 CALM      30.13R
PRESTON        PTCLDY    19  17  88 CALM      30.14R
$$
ABBREVIATIONS USED IN REMARKS
   TC - TEMPERATURES IN CELSIUS
  WCI - WIND CHILL INDEX
   HX - HEAT INDEX
  VSB - VISIBILITY
$$



USA.gov is the U.S. government's official web portal to all federal, state and local government web resources and services.